Weather observations for the past three days for
St. Louis Downtown Airport
Metric (Imperial)
Date Time (cdt) Wind (kph) Vis. (km) Weather Sky Cond. Temperature (ºC) Relative Humidity Wind Chill (°C) Heat Index (°C) Pressure Precipitation (cm)
Air Dwpt 6 hour altimeter (cm) sea level (mb) 1 hr 3 hr 6 hr
Max. Min.
02 22:53 S 6 16.09 Fair CLR 27.8 21.1 67% 30 76.1 1014.2
02 21:53 S 7 16.09 Fair CLR 30 21.1 59% 33 76.1 1014.0
02 20:53 S 7 16.09 Fair CLR 30.6 21.7 59% 34 76.07 1013.7
02 19:53 S 9 16.09 Fair CLR 31.7 21.1 53% 35 76.05 1013.2
02 18:53 SE 11 16.09 Fair CLR 33.3 21.1 38.3 33.3 49% 37 76.02 1013.1
02 17:53 SE 15 G 28 16.09 Fair CLR 36.1 20 39% 39 76.02 1012.9
02 16:53 Vrbl 9 16.09 Fair CLR 37.8 18.3 32% 40 76.02 1013.1
02 15:53 S 7 16.09 Partly Cloudy SCT080 36.7 18.3 34% 38 76.07 1013.6
02 14:53 Calm 16.09 Mostly Cloudy BKN075 37.8 20 35% 41 76.12 1014.1
02 13:53 Vrbl 9 16.09 Partly Cloudy SCT070 36.7 21.1 40% 41 76.17 1014.9
02 12:53 W 7 16.09 Fair CLR 36.1 20 36.7 23.3 39% 39 76.2 1015.4
02 11:53 Vrbl 9 16.09 Fair CLR 35.6 20 40% 38 76.25 1016.1
02 10:53 W 15 G 31 16.09 Fair CLR 34.4 21.1 46% 38 76.28 1016.5
02 09:53 Vrbl 6 16.09 Fair CLR 31.7 21.7 55% 35 76.28 1016.6
02 08:53 SW 11 16.09 Fair CLR 30 21.1 59% 33 76.3 1016.8
02 07:53 Calm 16.09 Fair CLR 27.2 21.7 72% 29 76.3 1016.8
02 06:53 Calm 16.09 Fair CLR 23.3 21.1 27.2 22.8 88% 76.28 1016.3
02 05:53 Calm 16.09 Fair CLR 22.8 21.7 94% 76.25 1016.0
02 04:53 Calm 16.09 Fair CLR 23.9 21.7 88% 24 76.23 1015.6
02 03:53 Calm 16.09 Fair CLR 24.4 21.7 85% 25 76.2 1015.3
02 02:53 S 6 16.09 Fair CLR 25 21.1 79% 26 76.2 1015.3
02 01:53 Calm 16.09 Fair CLR 25.6 21.7 79% 27 76.2 1015.5
02 00:53 S 6 16.09 Fair CLR 27.2 21.1 33.3 26.1 69% 29 76.2 1015.2
01 23:53 S 6 16.09 Fair CLR 28.3 21.1 65% 31 76.2 1015.2
01 22:53 S 7 16.09 Fair CLR 29.4 20.6 59% 32 76.17 1015.1
01 21:53 Calm 16.09 Fair CLR 27.8 20.6 65% 30 76.17 1015.1
01 20:53 S 7 16.09 Fair CLR 29.4 20.6 59% 32 76.15 1014.6
01 19:53 S 9 16.09 Fair CLR 31.1 20.6 54% 34 76.1 1014.1
01 18:53 S 7 16.09 Fair CLR 33.3 21.1 37.8 33.3 49% 37 76.1 1014.2
01 17:53 SE 9 16.09 A Few Clouds FEW080 36.1 20.6 40% 39 76.12 1014.3
01 16:53 S 11 16.09 A Few Clouds FEW080 37.2 19.4 35% 40 76.1 1014.1
01 15:53 SE 13 16.09 Fair CLR 37.8 18.9 33% 40 76.12 1014.4
01 14:53 Calm 16.09 A Few Clouds FEW080 36.1 18.3 35% 38 76.17 1015.0
01 13:53 Calm 16.09 Fair CLR 36.7 18.9 35% 39 76.23 1015.7
01 12:53 Vrbl 7 16.09 Fair CLR 36.1 20 36.1 22.2 39% 39 76.28 1016.4
01 10:53 SW 7 16.09 Fair CLR 32.8 21.7 52% 36 76.33 1017.2
01 09:53 Vrbl 9 16.09 Fair CLR 30.6 21.1 57% 33 76.35 1017.3
01 08:53 Calm 16.09 Fair CLR 28.3 21.7 67% 31 76.35 1017.5
01 07:53 S 6 16.09 Fair CLR 25 21.1 79% 26 76.35 1017.4
01 06:53 S 6 16.09 Fair CLR 22.2 20.6 24.4 21.1 91% 76.3 1016.9
01 05:53 Calm 16.09 Fair CLR 21.7 20.6 94% 76.28 1016.4
01 04:53 S 7 16.09 Fair CLR 22.8 20.6 87% 76.28 1016.2
01 03:53 S 7 16.09 Fair CLR 22.8 20.6 87% 76.23 1015.8
01 02:53 S 7 16.09 Fair CLR 23.3 20.6 85% 76.23 1015.6
01 01:53 Calm 16.09 Fair CLR 22.8 20.6 87% 76.2 1015.5
01 00:53 SE 6 16.09 Fair CLR 24.4 21.1 33.3 23.3 82% 25 76.23 1015.6
31 23:53 SE 7 16.09 Fair CLR 24.4 20.6 79% 25 76.2 1015.4
31 22:53 Calm 16.09 Fair CLR 27.2 20.6 67% 29 76.2 1015.4
31 21:53 S 9 16.09 Fair CLR 27.2 21.1 69% 29 76.2 1015.3
31 20:53 S 7 16.09 Fair CLR 28.3 21.1 65% 31 76.17 1014.9
31 19:53 S 7 16.09 Fair CLR 30.6 20.6 55% 33 76.12 1014.3
31 18:53 S 11 16.09 Fair CLR 33.3 20.6 37.8 33.3 47% 36 76.1 1014.2
31 17:53 S 11 16.09 A Few Clouds FEW085 35 21.1 44% 39 76.1 1013.9
31 16:53 S 11 16.09 A Few Clouds FEW080 36.7 18.9 35% 39 76.1 1014.1
31 15:53 Calm 16.09 Fair CLR 37.8 18.9 33% 40 76.12 1014.2
31 14:53 Vrbl 7 16.09 Fair CLR 37.2 18.3 33% 39 76.15 1014.7
31 13:53 S 13 16.09 Fair CLR 36.1 18.9 36% 38 76.2 1015.3
31 12:53 SW 13 G 28 16.09 Fair CLR 35.6 18.9 35.6 18.3 37% 38 76.25 1016.2
31 11:53 SW 7 16.09 Fair CLR 33.3 18.9 43% 35 76.3 1016.9
31 10:53 SW 7 16.09 Fair CLR 31.7 18.9 47% 33 76.33 1017.1
31 09:53 SW 9 16.09 Fair CLR 29.4 17.2 48% 30 76.33 1017.0
31 08:53 S 6 16.09 Fair CLR 27.8 18.9 58% 29 76.3 1016.8
31 07:53 Calm 16.09 Fair CLR 23.3 18.3 74% 76.28 1016.6
31 06:53 Calm 16.09 Fair CLR 18.3 17.2 21.7 18.3 93% 76.25 1016.0
31 05:53 S 7 16.09 Fair CLR 20 17.2 84% 76.23 1015.9
31 04:53 S 7 16.09 Fair CLR 20.6 17.2 81% 76.23 1015.6
31 03:53 Calm 16.09 Fair CLR 21.1 17.2 79% 76.2 1015.3
31 02:53 SE 11 16.09 Fair CLR 20 17.2 84% 76.17 1015.0
31 01:53 S 9 16.09 Fair CLR 20.6 17.8 84% 76.17 1015.2
31 00:53 S 7 16.09 Fair CLR 21.7 17.2 30.6 20.6 76% 76.2 1015.5
30 23:53 Calm 16.09 Fair CLR 20.6 17.8 84% 76.2 1015.3
Date Time (cdt) Wind (kph) Vis. (km) Weather Sky Cond. Air Dwpt Max. Min. Relative Humidity Wind Chill (°C) Heat Index (°C) altimeter (cm) sea level (mb) 1 hr 3 hr 6 hr
6 hour
Temperature (ºC) Pressure Precipitation (cm)